Location: Ford County Road and Bridge Department
(37.7686°N, 99.9762°W)
Time: 14:57:54
(UTC+00:00)

Cosmos 864 Rocket - Pass Details

Date: 18 January 2020
Orbit: 954 x 991 km, 82.9° (Epoch: 22 February)

Event Time Altitude Azimuth Distance (km) Brightness Sun altitude
Rises 01:29:15 0° 173° (S) 3,628 7.5 -20.0°
Reaches altitude 10° 01:31:47 10° 169° (S) 2,681 6.8 -20.5°
Maximum altitude 01:37:46 58° 92° (E) 1,103 4.4 -21.7°
Enters shadow 01:42:41 16° 18° (NNE) 2,297 6.2 -22.6°
